Time,TemperatureF,DewpointF,PressureIn,WindDirection,WindDirectionDegrees,WindSpeedMPH,WindSpeedGustMPH,Humidity,HourlyPrecipIn,Conditions,Clouds,dailyrainin,SoftwareType,DateUTC
2013-07-23 00:11:00,70.5,69.0,29.89,ESE,117,0.0,0.0,96,0.00,,,0.00,weatherlink.com 1.10,2013-07-23 04:11:00,
2013-07-23 00:25:00,70.6,70.0,29.88,ESE,117,0.0,0.0,96,0.00,,,0.00,weatherlink.com 1.10,2013-07-23 04:25:00,
2013-07-23 00:41:00,70.7,70.0,29.88,SE,129,0.0,1.0,96,0.00,,,0.00,weatherlink.com 1.10,2013-07-23 04:41:00,
2013-07-23 00:57:00,70.8,70.0,29.87,SE,131,0.0,1.0,96,0.00,,,0.00,weatherlink.com 1.10,2013-07-23 04:57:00,
2013-07-23 01:11:00,70.9,70.0,29.86,SSE,165,0.0,2.0,96,0.00,,,0.00,weatherlink.com 1.10,2013-07-23 05:11:00,
2013-07-23 01:27:00,71.0,70.0,29.85,SSE,165,0.0,1.0,97,0.00,,,0.00,weatherlink.com 1.10,2013-07-23 05:27:00,
2013-07-23 01:41:00,71.0,70.0,29.85,SSE,165,0.0,1.0,97,0.00,,,0.00,weatherlink.com 1.10,2013-07-23 05:41:00,
2013-07-23 01:57:00,71.2,70.0,29.84,South,181,0.0,2.0,97,0.00,,,0.00,weatherlink.com 1.10,2013-07-23 05:57:00,
2013-07-23 02:11:00,71.3,70.0,29.83,South,181,0.0,1.0,97,0.00,,,0.00,weatherlink.com 1.10,2013-07-23 06:11:00,
2013-07-23 02:27:00,71.4,71.0,29.83,East,94,0.0,2.0,97,0.00,,,0.00,weatherlink.com 1.10,2013-07-23 06:27:00,
2013-07-23 02:41:00,71.6,71.0,29.82,East,94,0.0,0.0,97,0.00,,,0.00,weatherlink.com 1.10,2013-07-23 06:41:00,
2013-07-23 02:57:00,71.6,71.0,29.81,East,95,0.0,1.0,97,0.00,,,0.00,weatherlink.com 1.10,2013-07-23 06:57:00,
2013-07-23 03:11:00,71.5,71.0,29.80,SSE,158,1.0,2.0,97,0.00,,,0.00,weatherlink.com 1.10,2013-07-23 07:11:00,
2013-07-23 03:27:00,71.4,71.0,29.80,SSE,155,1.0,1.0,97,0.00,,,0.00,weatherlink.com 1.10,2013-07-23 07:27:00,
2013-07-23 03:42:00,71.4,71.0,29.79,South,176,0.0,0.0,97,0.00,,,0.00,weatherlink.com 1.10,2013-07-23 07:42:00,
2013-07-23 03:56:00,71.4,71.0,29.78,SSW,213,0.0,2.0,97,0.00,,,0.00,weatherlink.com 1.10,2013-07-23 07:56:00,
2013-07-23 04:12:00,71.2,70.0,29.78,SSE,152,0.0,2.0,97,0.00,,,0.00,weatherlink.com 1.10,2013-07-23 08:12:00,
2013-07-23 04:27:00,71.2,70.0,29.77,SSE,165,0.0,2.0,97,0.00,,,0.00,weatherlink.com 1.10,2013-07-23 08:27:00,
2013-07-23 04:42:00,71.3,70.0,29.77,SSE,162,0.0,3.0,97,0.00,,,0.00,weatherlink.com 1.10,2013-07-23 08:42:00,
2013-07-23 04:58:00,71.3,70.0,29.77,SSE,162,0.0,1.0,97,0.00,,,0.00,weatherlink.com 1.10,2013-07-23 08:58:00,
2013-07-23 05:12:00,71.5,71.0,29.77,South,169,0.0,2.0,97,0.00,,,0.00,weatherlink.com 1.10,2013-07-23 09:12:00,
2013-07-23 05:30:00,71.9,71.0,29.76,South,172,1.0,3.0,97,0.00,,,0.00,weatherlink.com 1.10,2013-07-23 09:30:00,
2013-07-23 05:42:00,71.9,71.0,29.76,SW,215,0.0,4.0,97,0.00,,,0.00,weatherlink.com 1.10,2013-07-23 09:42:00,
2013-07-23 05:58:00,72.1,71.0,29.76,SW,234,1.0,4.0,97,0.00,,,0.00,weatherlink.com 1.10,2013-07-23 09:58:00,
2013-07-23 06:13:00,72.3,71.0,29.76,SSE,160,1.0,4.0,97,0.00,,,0.00,weatherlink.com 1.10,2013-07-23 10:13:00,
2013-07-23 06:28:00,72.6,72.0,29.76,SSW,207,1.0,5.0,97,0.00,,,0.00,weatherlink.com 1.10,2013-07-23 10:28:00,
2013-07-23 06:44:00,73.0,72.0,29.75,SSW,199,1.0,4.0,97,0.00,,,0.00,weatherlink.com 1.10,2013-07-23 10:44:00,
2013-07-23 06:58:00,73.0,72.0,29.75,SSW,207,2.0,4.0,97,0.00,,,0.00,weatherlink.com 1.10,2013-07-23 10:58:00,
2013-07-23 07:14:00,73.1,72.0,29.74,SW,221,2.0,3.0,97,0.00,,,0.00,weatherlink.com 1.10,2013-07-23 11:14:00,
2013-07-23 07:28:00,73.1,72.0,29.74,SSE,165,2.0,7.0,97,0.00,,,0.00,weatherlink.com 1.10,2013-07-23 11:28:00,
2013-07-23 07:44:00,73.3,72.0,29.73,South,176,1.0,5.0,97,0.00,,,0.00,weatherlink.com 1.10,2013-07-23 11:44:00,
2013-07-23 07:58:00,73.8,73.0,29.73,SW,215,1.0,5.0,97,0.00,,,0.00,weatherlink.com 1.10,2013-07-23 11:58:00,
2013-07-23 08:14:00,74.6,74.0,29.72,ESE,122,0.0,3.0,97,0.00,,,0.00,weatherlink.com 1.10,2013-07-23 12:14:00,
2013-07-23 08:29:00,74.9,74.0,29.72,SW,224,3.0,5.0,97,0.00,,,0.00,weatherlink.com 1.10,2013-07-23 12:29:00,
2013-07-23 08:44:00,75.3,74.0,29.71,SW,229,3.0,6.0,97,0.00,,,0.00,weatherlink.com 1.10,2013-07-23 12:44:00,
2013-07-23 08:59:00,76.4,76.0,29.70,SSW,197,1.0,7.0,97,0.00,,,0.00,weatherlink.com 1.10,2013-07-23 12:59:00,
2013-07-23 09:14:00,76.6,75.0,29.70,South,191,1.0,7.0,95,0.00,,,0.00,weatherlink.com 1.10,2013-07-23 13:14:00,
2013-07-23 09:30:00,77.2,75.0,29.70,West,268,0.0,6.0,93,0.00,,,0.00,weatherlink.com 1.10,2013-07-23 13:30:00,
2013-07-23 09:44:00,77.2,75.0,29.70,South,184,1.0,6.0,92,0.00,,,0.00,weatherlink.com 1.10,2013-07-23 13:44:00,
2013-07-23 10:00:00,77.1,74.0,29.69,SSE,163,2.0,5.0,91,0.00,,,0.00,weatherlink.com 1.10,2013-07-23 14:00:00,
2013-07-23 10:15:00,76.8,74.0,29.69,SW,229,2.0,6.0,92,0.00,,,0.00,weatherlink.com 1.10,2013-07-23 14:15:00,
2013-07-23 10:29:00,77.4,75.0,29.69,ESE,118,2.0,5.0,92,0.00,,,0.00,weatherlink.com 1.10,2013-07-23 14:29:00,
2013-07-23 10:45:00,79.5,76.0,29.68,SSW,211,2.0,7.0,89,0.00,,,0.00,weatherlink.com 1.10,2013-07-23 14:45:00,
2013-07-23 11:05:00,80.9,77.0,29.68,SSE,167,3.0,8.0,87,0.00,,,0.00,weatherlink.com 1.10,2013-07-23 15:05:00,
2013-07-23 11:14:00,81.5,77.0,29.68,NW,305,2.0,8.0,87,0.00,,,0.00,weatherlink.com 1.10,2013-07-23 15:14:00,
2013-07-23 11:30:00,80.8,76.0,29.68,SE,137,2.0,8.0,85,0.00,,,0.00,weatherlink.com 1.10,2013-07-23 15:30:00,
2013-07-23 11:46:00,81.1,77.0,29.68,SE,143,1.0,9.0,87,0.00,,,0.00,weatherlink.com 1.10,2013-07-23 15:46:00,
2013-07-23 12:05:00,82.5,78.0,29.67,SSW,204,1.0,9.0,86,0.00,,,0.00,weatherlink.com 1.10,2013-07-23 16:05:00,
2013-07-23 12:15:00,82.2,77.0,29.66,SE,140,0.0,10.0,84,0.00,,,0.00,weatherlink.com 1.10,2013-07-23 16:15:00,
2013-07-23 12:31:00,81.7,77.0,29.66,SW,216,1.0,11.0,85,0.00,,,0.00,weatherlink.com 1.10,2013-07-23 16:31:00,
2013-07-23 12:46:00,80.8,77.0,29.66,WNW,293,1.0,11.0,87,0.00,,,0.00,weatherlink.com 1.10,2013-07-23 16:46:00,
2013-07-23 13:02:00,82.0,78.0,29.65,SSE,165,2.0,12.0,86,0.00,,,0.00,weatherlink.com 1.10,2013-07-23 17:02:00,
2013-07-23 13:16:00,82.7,78.0,29.64,NW,304,9.0,10.0,85,0.00,,,0.00,weatherlink.com 1.10,2013-07-23 17:16:00,
2013-07-23 13:32:00,82.3,78.0,29.64,West,261,4.0,9.0,86,0.00,,,0.00,weatherlink.com 1.10,2013-07-23 17:32:00,
2013-07-23 13:46:00,82.1,78.0,29.63,SSW,212,4.0,11.0,86,0.00,,,0.00,weatherlink.com 1.10,2013-07-23 17:46:00,
2013-07-23 14:05:00,82.0,78.0,29.63,NW,309,3.0,14.0,86,0.00,,,0.00,weatherlink.com 1.10,2013-07-23 18:05:00,
2013-07-23 14:16:00,81.0,77.0,29.63,West,264,2.0,11.0,86,0.00,,,0.00,weatherlink.com 1.10,2013-07-23 18:16:00,
2013-07-23 14:31:00,80.7,77.0,29.63,WNW,290,2.0,10.0,87,0.00,,,0.00,weatherlink.com 1.10,2013-07-23 18:31:00,
2013-07-23 14:47:00,80.9,77.0,29.62,South,174,6.0,11.0,88,0.00,,,0.00,weatherlink.com 1.10,2013-07-23 18:47:00,
2013-07-23 15:03:00,80.8,77.0,29.62,NW,319,4.0,14.0,87,0.00,,,0.00,weatherlink.com 1.10,2013-07-23 19:03:00,
2013-07-23 15:17:00,80.7,77.0,29.62,NW,313,0.0,10.0,88,0.00,,,0.00,weatherlink.com 1.10,2013-07-23 19:17:00,
2013-07-23 15:31:00,80.5,76.0,29.61,North,359,2.0,10.0,87,0.00,,,0.00,weatherlink.com 1.10,2013-07-23 19:31:00,
2013-07-23 15:47:00,80.9,76.0,29.61,WSW,251,2.0,12.0,86,0.00,,,0.00,weatherlink.com 1.10,2013-07-23 19:47:00,
2013-07-23 16:03:00,80.9,75.0,29.61,WSW,254,8.0,21.0,83,0.00,,,0.00,weatherlink.com 1.10,2013-07-23 20:03:00,
2013-07-23 16:32:00,80.5,76.0,29.61,WSW,255,9.0,14.0,85,0.00,,,0.00,weatherlink.com 1.10,2013-07-23 20:32:00,
2013-07-23 16:47:00,80.1,75.0,29.61,West,273,3.0,17.0,85,0.00,,,0.00,weatherlink.com 1.10,2013-07-23 20:47:00,
2013-07-23 17:02:00,79.7,76.0,29.61,WNW,301,3.0,20.0,88,0.00,,,0.00,weatherlink.com 1.10,2013-07-23 21:02:00,
2013-07-23 17:17:00,79.4,75.0,29.61,SW,227,4.0,16.0,87,0.00,,,0.00,weatherlink.com 1.10,2013-07-23 21:17:00,
2013-07-23 17:32:00,79.4,75.0,29.60,WSW,248,5.0,16.0,87,0.00,,,0.00,weatherlink.com 1.10,2013-07-23 21:32:00,
2013-07-23 17:47:00,80.2,75.0,29.60,South,172,4.0,12.0,85,0.00,,,0.00,weatherlink.com 1.10,2013-07-23 21:47:00,
2013-07-23 18:02:00,79.9,75.0,29.60,SW,232,5.0,10.0,86,0.00,,,0.00,weatherlink.com 1.10,2013-07-23 22:02:00,
2013-07-23 18:17:00,79.0,75.0,29.60,West,262,2.0,8.0,88,0.00,,,0.00,weatherlink.com 1.10,2013-07-23 22:17:00,
2013-07-23 18:32:00,78.2,74.0,29.60,SSW,193,1.0,12.0,88,0.00,,,0.00,weatherlink.com 1.10,2013-07-23 22:32:00,
2013-07-23 18:47:00,77.7,74.0,29.61,NNW,340,3.0,9.0,89,0.00,,,0.00,weatherlink.com 1.10,2013-07-23 22:47:00,
2013-07-23 19:02:00,77.4,74.0,29.61,SW,234,7.0,9.0,90,0.00,,,0.00,weatherlink.com 1.10,2013-07-23 23:02:00,
2013-07-23 19:17:00,77.3,75.0,29.61,WSW,247,4.0,12.0,91,0.00,,,0.00,weatherlink.com 1.10,2013-07-23 23:17:00,
2013-07-23 19:32:00,77.4,75.0,29.62,SW,214,6.0,10.0,91,0.00,,,0.00,weatherlink.com 1.10,2013-07-23 23:32:00,
2013-07-23 19:47:00,77.2,75.0,29.61,SSE,153,1.0,8.0,92,0.00,,,0.00,weatherlink.com 1.10,2013-07-23 23:47:00,
2013-07-23 20:02:00,77.1,75.0,29.61,NNW,328,7.0,8.0,92,0.00,,,0.00,weatherlink.com 1.10,2013-07-24 00:02:00,
2013-07-23 20:17:00,76.9,75.0,29.62,WSW,245,5.0,11.0,92,0.00,,,0.00,weatherlink.com 1.10,2013-07-24 00:17:00,
2013-07-23 20:32:00,76.6,75.0,29.62,West,266,5.0,12.0,93,0.00,,,0.00,weatherlink.com 1.10,2013-07-24 00:32:00,
2013-07-23 20:47:00,76.5,74.0,29.63,WSW,249,4.0,9.0,93,0.00,,,0.00,weatherlink.com 1.10,2013-07-24 00:47:00,
2013-07-23 21:02:00,76.6,75.0,29.63,WSW,250,5.0,9.0,93,0.00,,,0.00,weatherlink.com 1.10,2013-07-24 01:02:00,
2013-07-23 21:17:00,76.3,74.0,29.63,WNW,302,4.0,8.0,93,0.00,,,0.00,weatherlink.com 1.10,2013-07-24 01:17:00,
2013-07-23 21:32:00,76.2,74.0,29.62,West,264,0.0,8.0,93,0.00,,,0.00,weatherlink.com 1.10,2013-07-24 01:32:00,
2013-07-23 21:47:00,76.0,74.0,29.63,West,261,0.0,6.0,94,0.00,,,0.00,weatherlink.com 1.10,2013-07-24 01:47:00,
2013-07-23 22:17:00,75.5,74.0,29.63,SW,229,1.0,8.0,94,0.00,,,0.00,weatherlink.com 1.10,2013-07-24 02:17:00,
2013-07-23 22:47:00,75.2,73.0,29.63,WNW,288,3.0,10.0,94,0.00,,,0.00,weatherlink.com 1.10,2013-07-24 02:47:00,
2013-07-23 23:02:00,75.1,74.0,29.64,WNW,283,6.0,6.0,95,0.00,,,0.00,weatherlink.com 1.10,2013-07-24 03:02:00,
2013-07-23 23:17:00,75.1,73.0,29.63,South,179,1.0,8.0,94,0.00,,,0.00,weatherlink.com 1.10,2013-07-24 03:17:00,
2013-07-23 23:47:00,74.7,72.0,29.63,NNW,327,4.0,6.0,92,0.00,,,0.00,weatherlink.com 1.10,2013-07-24 03:47:00,